User: anonymous   Login
Location: Ellerstadt
(49.4644°N, 8.2615°E)
Time: 12:33:25
(UTC+00:00)
Language:

Cosmos 1354 Rocket - Orbit

View from above orbital plane
View from above orbital plane
View from above satellite
View from above satellite

Ground track
Ground track

The orbit data is extracted from the following two-line orbital elements,

1 13149U 82037B   21138.08393630 -.00000043  00000-0 -58022-5 0  9996
2 13149  74.0388 150.3988 0013110 358.0613   2.0486 14.35396486 42944
Epoch (UTC): 18 May 2021 02:00:52
Eccentricity: 0.0013110
inclination: 74.0388°
perigee height: 764 km
apogee height: 783 km
right ascension of ascending node: 150.3988°
argument of perigee: 358.0613°
revolutions per day: 14.35396486
mean anomaly at epoch: 2.0486°
orbit number at epoch: 4294

The dashed part of the orbit path shows where the satellite is in the earth's shadow,  

DLR